Location: Casone le Fosse
(44.6547°N, 12.1103°E)
Time: 11:47:18
(UTC+00:00)

Cosmos 1455 - Pass Details

Date: 29 October 2020
Orbit: 499 x 521 km, 82.5° (Epoch: 28 November)

Event Time Altitude Azimuth Distance (km) Brightness Sun altitude
Rises 17:51:06 0° 191° (S) 2,596 5.9 -19.5°
Reaches altitude 10° 17:53:12 10° 193° (SSW) 1,720 5.0 -19.9°
Maximum altitude 17:56:58 74° 279° (W) 536 2.3 -20.6°
Drops below altitude 10° 18:00:48 10° 5° (N) 1,748 4.8 -21.2°
Sets 18:02:57 0° 7° (N) 2,644 5.8 -21.6°
